User: anonymous   Login
Location: Caltech
(34.1382°N, 118.1253°W)
Time: 11:43:09
(UTC-07:00)
Language:

Cosmos 1025 Rocket - Orbit

View from above orbital plane
View from above orbital plane
View from above satellite
View from above satellite

Ground track
Ground track

The orbit data is extracted from the following two-line orbital elements,

1 10974U 78067B   16239.73826329  .00000094  00000-0  77700-5 0  9999
2 10974  82.4801  88.0596 0016130 236.4347 123.5331 14.87174682 63793
Epoch (UTC): 26 August 2016 17:43:05
Eccentricity: 0.0016130
inclination: 82.4801°
perigee height: 595 km
apogee height: 618 km
right ascension of ascending node: 88.0596°
argument of perigee: 236.4347°
revolutions per day: 14.87174682
mean anomaly at epoch: 123.5331°
orbit number at epoch: 6379

The dashed part of the orbit path shows where the satellite is in the earth's shadow,  

DLR